カタログに戻る

CZ-6A DEB

運用中PO
NORAD 61488·DEBRIS·🇨🇳 China

打ち上げ Aug 6, 2024 から Taiyuan Satellite Launch Center

Loading…

次のパス (今後24時間)

TLE

最新Source: Space-Track

元期: Sep 14, 2026, 08:14 UTC

1 61488U 24140AAW 26257.34358538  .00002270  00000-0  75831-3 0  9997
2 61488  88.6413 229.7360 0084529 116.8553 244.1318 14.35120449105108

AllMySatでCZ-6A DEBをリアルタイム追跡

Download on the App Store